Location: ?????????
(54.7630°N, 39.4991°E)
Time: 19:58:00
(UTC+00:00)

SJ 16-02 - Pass Details

Date: 14 April 2026
Orbit: 582 x 592 km, 75.0° (Epoch: 19 May)

Event Time Altitude Azimuth Distance (km) Brightness Sun altitude
Rises 18:59:06 0° 340° (NNW) 2,834 6.1 -19.0°
Reaches altitude 10° 19:02:09 10° 3° (N) 1,927 4.6 -19.2°
Maximum altitude 19:04:46 16° 41° (NE) 1,586 3.6 -19.4°
Enters shadow 19:06:50 12° 72° (ENE) 1,801 3.6 -19.6°
